Theta_e
351 348 348 348 348 348 347 348 348 342 338 337 336 332 326 321 319 315 317 317 323 332 340 333 335 344 345 348 349 346 346 350 354 348 348 346 347 347 345 345 344 344 344 344 344 346 348 347 348 349 349 349 350 351 350 349 349 350 349 350 351 351 352 351 350 349 349 349 348 348 348 350 352 353
349 350 350 349 349 349 348 351 349 346 340 339 338 336 331 326 325 320 318 316 322 328 332 336 335 339 346 349 352 349 350 354 355 350 349 348 347 344 344 344 344 343 343 342 340 342 343 343 343 342 341 342 343 346 347 348 348 349 348 348 349 349 349 348 347 347 347 347 348 348 348 350 351 351
350 348 348 347 348 348 349 349 348 349 344 341 340 340 336 334 330 326 322 322 326 333 333 335 339 342 344 349 351 353 352 354 354 352 351 350 350 348 349 347 345 344 342 340 339 338 337 337 337 337 338 340 342 344 346 346 346 345 343 344 343 342 342 341 340 341 343 343 344 344 345 347 348 349
350 348 348 349 349 348 347 346 347 347 346 343 341 341 340 335 335 333 328 327 331 334 337 337 341 344 346 349 351 351 352 356 356 352 354 355 355 354 354 352 348 345 342 341 339 337 335 334 336 338 340 341 344 346 345 342 341 338 338 339 337 337 337 335 336 337 339 339 340 340 341 342 344 345
351 350 348 349 349 349 349 348 350 350 349 345 343 342 340 338 336 336 333 331 335 337 337 339 342 346 348 350 344 349 352 352 354 355 355 356 355 356 356 356 351 348 344 341 338 338 336 335 335 338 340 342 343 343 342 338 335 334 333 332 331 332 332 332 333 336 336 336 337 338 338 340 340 341
353 352 349 350 350 348 348 348 347 350 348 347 345 344 345 342 341 338 338 336 334 338 337 340 342 344 347 348 344 347 350 352 353 354 356 358 357 357 357 356 357 350 345 340 338 337 335 335 336 337 339 339 337 337 334 332 330 330 329 327 328 329 328 328 331 334 333 333 334 335 335 336 336 337
351 350 351 351 350 350 348 348 349 348 348 348 349 348 347 346 345 343 341 338 336 337 340 338 340 340 343 345 349 349 350 352 352 352 355 356 358 358 357 357 358 351 345 342 339 336 336 337 336 335 337 335 331 330 327 327 326 326 325 325 327 327 326 326 328 330 329 330 331 332 332 332 333 334
351 352 351 351 352 348 347 348 348 348 348 348 348 346 345 346 347 347 346 343 342 339 341 339 342 341 341 344 345 349 352 352 353 354 354 354 355 356 357 357 358 355 345 343 341 340 339 338 336 333 332 329 326 325 324 325 325 325 324 323 324 324 324 324 324 327 325 326 326 327 328 330 330 329
351 351 351 352 351 348 349 349 348 349 347 348 346 347 345 346 348 347 348 347 345 343 343 343 337 337 340 342 344 346 350 351 350 350 350 353 354 355 357 359 361 352 349 351 346 343 342 340 337 333 331 329 326 326 325 324 323 323 323 322 322 323 323 323 322 323 322 323 324 322 324 326 327 326
353 352 352 352 351 350 350 351 349 347 348 347 347 346 346 345 344 344 345 345 345 344 345 344 342 337 342 343 342 345 346 348 349 350 351 351 349 349 354 356 360 361 361 360 359 349 346 343 337 332 332 328 326 326 325 325 324 322 321 318 318 320 320 320 322 321 320 320 321 322 322 323 325 326
353 353 353 352 352 351 351 351 351 350 348 349 349 349 348 347 344 345 345 345 343 343 342 341 341 342 340 342 345 345 344 346 348 346 346 343 345 345 346 353 356 356 357 354 350 347 345 342 342 329 328 328 328 328 327 327 325 323 320 318 318 318 317 318 320 320 318 319 319 318 317 318 323 326
354 354 354 354 353 352 352 351 351 351 350 350 349 350 348 348 346 346 346 344 343 342 342 341 343 337 337 337 339 341 341 344 342 341 343 345 344 348 345 347 351 351 353 352 351 347 346 344 342 335 335 335 331 329 330 331 328 325 320 320 322 321 318 318 318 318 317 316 316 316 316 317 320 322
353 354 354 355 355 356 361 360 358 357 357 351 349 349 347 347 347 347 346 346 342 342 341 343 341 338 341 341 340 343 339 341 344 342 345 344 343 342 345 348 348 349 348 349 347 346 346 345 343 341 338 342 337 333 332 330 329 325 320 320 321 320 319 318 318 318 317 316 316 315 315 317 319 321
352 353 353 356 363 361 356 354 352 349 351 358 356 351 349 348 348 347 346 346 345 344 342 343 343 341 342 342 341 341 339 341 341 346 345 345 344 341 344 343 346 349 347 345 343 342 346 342 337 337 335 337 337 332 330 327 324 323 321 320 320 320 319 318 318 317 317 316 316 316 315 316 318 317
352 352 352 352 357 362 365 356 348 346 345 345 346 349 358 359 352 348 346 346 345 343 344 344 342 342 343 343 342 343 346 341 344 346 341 345 338 338 338 339 344 347 347 339 335 338 342 337 332 333 333 334 334 330 328 329 325 322 321 320 320 319 319 319 320 319 317 316 316 316 315 316 316 316
352 351 352 352 353 353 354 356 356 352 347 342 342 343 344 348 350 352 352 350 347 344 345 345 345 343 344 344 338 342 338 344 345 346 345 342 341 341 339 337 340 345 347 340 335 334 336 333 331 331 333 334 333 329 325 325 325 322 321 320 320 319 319 318 319 319 318 317 317 318 317 317 317 316
352 351 351 351 352 353 361 361 357 354 354 347 341 340 342 344 343 337 337 342 352 351 346 346 346 345 344 343 344 344 339 339 341 341 342 341 340 341 340 340 338 347 344 335 331 331 333 328 327 329 332 333 331 330 327 325 324 322 321 320 320 319 318 318 318 317 317 316 316 316 315 314 314 314
352 351 350 350 350 351 352 353 354 354 353 353 351 349 348 347 350 346 338 337 339 343 349 349 347 349 346 347 346 346 343 342 342 339 341 338 338 338 341 342 345 347 344 338 327 327 327 328 326 326 328 332 331 330 325 322 322 321 320 319 318 317 316 316 317 316 316 316 315 315 313 312 312 312
352 352 352 351 350 350 350 351 353 352 352 351 351 350 349 349 349 349 349 348 347 346 346 349 351 352 350 349 349 347 345 346 346 345 344 343 342 341 339 340 340 343 340 335 329 324 328 325 324 326 327 330 329 329 326 322 322 320 318 319 318 317 315 315 315 315 315 315 314 314 313 312 311 311
352 352 352 351 351 351 350 353 346 355 353 350 349 348 348 348 348 348 351 341 343 350 349 349 350 352 353 345 351 350 347 345 344 346 345 345 342 343 345 347 335 335 338 333 328 324 325 324 325 325 326 326 327 327 327 325 322 320 319 319 317 316 314 314 313 313 314 314 314 314 312 310 309 311
351 352 352 351 351 351 351 347 335 335 352 351 349 347 347 348 347 348 350 339 332 331 331 332 334 335 335 334 332 330 331 344 344 342 340 344 345 344 343 341 330 331 334 332 329 324 323 324 323 324 324 325 325 326 326 326 323 320 318 317 316 315 314 313 312 312 313 313 313 314 313 310 310 315
350 352 360 359 351 351 351 339 333 332 342 347 348 347 346 345 345 347 349 350 348 330 327 328 329 330 331 332 332 331 327 327 341 346 344 344 344 344 342 340 330 326 328 332 332 325 323 323 322 323 321 322 322 325 325 326 324 323 319 317 316 315 315 314 312 312 312 312 313 313 311 310 313 321
350 349 355 359 354 352 347 334 331 329 338 345 346 346 346 345 344 347 347 346 348 346 346 348 345 346 343 343 341 343 335 331 341 348 350 347 345 344 339 337 328 328 326 330 332 325 322 322 323 321 317 317 319 322 326 326 323 323 323 322 320 315 316 316 313 311 310 311 311 312 310 310 313 319
348 349 349 349 337 332 332 329 326 325 325 343 346 346 345 344 344 348 346 347 348 349 350 351 350 350 351 347 346 345 345 343 343 346 349 349 348 346 343 339 336 330 323 329 332 324 321 322 322 321 319 317 316 319 321 322 321 322 321 321 318 318 319 317 314 312 310 310 310 311 310 310 312 318
348 348 349 350 340 327 325 324 322 320 319 328 346 347 346 347 347 347 345 348 362 352 350 350 350 349 347 346 345 344 345 346 346 346 346 350 350 348 345 341 336 334 328 331 333 328 326 325 321 319 321 317 317 320 318 317 320 320 323 318 317 318 317 316 316 314 312 311 310 309 309 310 311 314
348 348 349 349 342 329 324 321 318 317 319 320 337 344 331 331 332 343 348 348 348 352 351 349 348 347 346 346 346 347 346 347 348 349 348 347 349 350 351 347 341 334 331 333 330 330 327 323 323 320 317 318 318 318 315 315 317 319 318 317 317 317 316 315 314 313 312 313 314 312 312 311 312 313
348 350 350 351 345 328 321 318 317 317 317 322 330 324 324 325 327 339 345 347 347 347 348 348 348 348 349 348 348 348 348 349 349 350 351 348 348 348 349 348 345 342 335 337 337 333 327 321 323 322 319 316 316 316 313 312 312 314 317 315 317 317 316 314 313 313 313 313 313 311 310 311 313 314
350 350 351 347 332 323 316 315 316 317 318 329 319 317 320 323 330 338 343 344 347 347 345 345 346 348 349 350 350 350 351 352 344 344 346 347 347 347 345 342 342 336 336 337 336 333 329 326 326 321 323 322 318 314 312 313 317 316 314 316 317 315 315 315 313 314 315 313 311 312 313 313 316 317
351 340 331 328 324 323 317 315 316 316 317 315 318 319 321 336 338 340 343 345 346 346 346 346 347 347 348 351 352 348 342 341 341 344 344 344 342 339 338 336 336 336 338 338 335 332 330 327 327 324 320 319 318 315 314 311 312 312 314 314 311 313 315 315 313 310 312 312 310 312 311 311 314 316
336 331 327 325 324 324 325 331 333 335 335 321 320 323 329 332 337 340 342 344 345 346 347 347 347 349 348 345 347 343 340 339 340 340 339 336 335 335 333 331 331 334 337 336 335 332 329 327 326 326 323 320 318 318 317 313 311 311 315 313 313 315 316 312 311 310 311 310 310 311 311 312 314 317
342 339 339 338 330 332 331 333 334 334 336 334 331 329 331 332 335 338 341 344 346 346 347 347 348 349 345 343 344 342 339 339 338 338 338 336 334 332 331 330 330 331 332 335 334 331 329 326 326 326 323 320 319 318 315 314 311 312 311 310 313 308 309 312 312 310 309 309 309 308 310 311 312 318
344 347 339 332 337 337 337 336 339 340 340 340 338 336 334 335 337 341 347 350 347 348 349 349 346 341 340 342 343 341 341 341 339 336 335 334 332 332 331 329 328 328 330 333 333 336 337 327 326 326 325 323 320 318 314 312 312 311 310 314 315 313 313 311 309 310 310 309 307 306 307 309 311 312
341 341 339 340 339 340 341 340 340 341 339 339 339 339 338 337 338 340 342 344 346 347 346 346 347 346 343 343 340 337 337 338 337 334 333 334 333 332 331 329 327 326 327 329 330 329 327 328 331 324 321 321 319 319 317 314 315 313 311 312 311 311 311 310 309 309 309 306 307 307 305 308 310 311
339 340 341 342 342 341 342 343 342 342 341 341 339 337 333 337 338 339 341 343 345 346 346 346 344 345 340 337 336 337 337 337 336 333 330 332 332 330 329 328 326 326 327 328 328 326 325 324 323 321 320 319 319 319 319 315 312 311 312 310 310 309 310 310 310 307 307 305 305 305 306 306 308 309
337 339 339 340 342 342 343 343 344 343 342 340 341 340 338 338 338 337 340 342 342 342 343 343 344 341 336 337 337 337 337 335 333 332 332 332 331 330 329 328 327 325 325 326 325 325 323 323 322 319 317 312 314 315 321 319 314 314 310 309 310 310 311 311 310 310 307 304 304 305 307 306 307 308
335 338 340 340 342 343 343 343 344 344 344 344 344 344 341 339 338 339 340 340 342 341 342 342 341 340 336 337 337 336 336 333 331 330 329 330 330 329 329 329 327 326 324 324 325 325 323 322 320 316 315 312 310 308 309 319 322 316 312 310 307 309 310 310 308 307 306 305 306 303 304 305 306 308
336 337 339 341 342 343 343 345 345 346 346 346 346 346 345 343 340 340 342 339 341 341 341 342 340 338 336 336 335 334 334 332 330 328 328 329 329 328 328 329 329 326 324 323 324 325 323 320 317 316 314 310 308 309 311 309 312 315 316 315 310 309 310 307 306 306 305 304 305 303 304 304 305 307
337 338 338 340 342 344 344 345 345 344 346 346 346 345 345 346 345 343 341 339 339 339 338 339 339 336 336 333 334 333 333 333 331 328 327 328 328 327 327 327 327 325 323 323 323 324 323 321 319 317 315 312 310 308 308 309 311 313 312 316 314 311 310 307 306 305 306 303 304 303 302 303 304 306
337 338 338 339 341 343 344 344 344 344 345 344 344 344 345 345 345 341 338 339 339 338 337 336 335 334 332 332 332 332 331 330 329 328 327 328 328 327 327 327 326 325 322 319 319 321 321 321 321 318 316 314 312 310 311 310 311 312 308 307 312 310 309 308 307 305 304 303 303 302 304 305 306 310
336 338 339 339 341 342 344 344 344 344 343 344 345 346 344 341 340 338 338 337 337 337 336 335 333 329 331 331 330 331 331 331 330 329 328 327 327 328 327 326 326 324 321 318 317 317 319 322 322 320 318 318 318 315 312 311 309 308 309 307 304 311 312 309 307 305 305 304 301 302 303 301 302 302
334 336 338 339 341 341 341 337 337 341 343 344 344 338 341 341 342 341 340 338 337 335 334 332 331 331 331 330 330 330 328 328 328 329 329 328 327 326 326 324 324 321 319 316 315 316 319 322 325 324 323 316 314 316 314 312 313 310 308 310 305 304 306 310 309 306 305 302 302 302 302 301 301 301
335 336 338 339 340 337 337 338 340 342 343 343 342 341 341 341 341 335 336 334 335 334 332 330 329 329 330 330 329 327 327 326 325 325 326 327 327 325 324 323 322 317 317 316 316 317 320 318 322 320 322 318 315 313 313 312 311 310 309 308 308 307 306 306 306 307 307 305 302 302 300 301 300 301
335 336 337 339 339 337 338 338 339 341 342 342 340 341 340 338 336 333 333 333 333 331 331 331 331 330 329 328 328 327 327 327 325 324 323 323 324 323 322 321 320 319 318 318 318 318 318 317 315 316 317 317 314 315 312 313 311 309 308 309 310 307 307 310 307 306 307 307 307 307 304 302 302 302
336 336 338 338 338 338 339 339 339 340 341 340 338 335 335 333 332 332 332 332 332 332 332 332 331 329 328 327 327 325 324 324 323 323 322 321 321 321 321 320 319 319 319 318 317 315 314 314 314 314 313 312 312 312 313 311 311 311 311 309 308 306 307 307 308 308 309 309 309 308 308 308 307 307
335 334 328 323 325 329 334 337 338 337 336 333 332 332 331 331 330 331 331 331 331 331 330 330 329 329 328 326 325 324 322 320 321 321 321 320 320 320 320 320 319 317 316 314 312 311 311 310 310 311 311 313 312 312 315 314 312 311 310 307 310 309 307 307 306 306 306 307 307 308 308 309 309 308
Wind_Speed
3 2 2 2 3 4 3 3 2 1 2 3 4 4 3 4 1 2 2 2 1 2 0 0 1 1 3 5 4 3 3 5 5 3 4 4 4 8 11 12 11 11 11 11 11 11 11 12 12 13 14 14 14 14 15 15 15 15 15 14 14 14 15 14 14 15 15 16 16 15 15 16 19 20
2 2 1 1 3 3 2 4 2 0 2 3 3 4 3 5 2 3 0 3 3 2 2 2 2 3 5 4 5 3 5 6 5 4 4 4 4 8 10 10 10 10 9 9 9 9 9 10 10 11 12 13 13 13 12 13 12 12 12 11 12 12 13 13 13 13 14 14 15 14 14 15 17 17
2 3 3 2 2 2 3 3 3 1 1 3 2 2 4 3 4 4 3 0 3 2 2 3 2 2 4 4 5 5 5 5 4 4 4 4 6 8 7 9 9 10 10 9 9 9 9 10 10 10 11 11 11 11 11 10 9 8 9 11 12 12 12 11 11 12 13 13 14 14 13 13 14 15
3 3 4 4 3 2 1 3 3 3 2 2 2 2 3 2 3 5 4 2 5 3 4 4 5 4 4 5 5 5 6 6 7 4 5 5 7 5 5 7 9 9 9 9 9 9 9 9 9 9 9 9 9 8 8 9 11 11 10 9 9 9 8 9 9 10 11 12 12 12 12 13 14 14
4 4 4 4 4 1 1 3 4 4 3 2 2 1 2 3 3 4 3 2 5 4 3 3 4 3 2 4 1 4 6 7 7 7 5 5 4 5 5 5 8 9 10 11 11 11 11 9 8 8 8 8 8 10 10 10 10 10 10 10 11 12 12 13 11 10 11 11 11 12 12 12 12 12
4 4 4 5 4 3 3 2 3 3 2 3 3 3 4 5 5 3 2 4 2 5 3 3 3 4 1 3 1 2 5 7 6 8 8 7 4 5 5 5 6 10 10 11 11 11 10 9 8 9 11 10 11 10 10 10 11 12 14 15 15 15 16 16 16 12 12 12 13 12 11 11 12 12
4 4 5 6 4 3 3 3 4 3 3 3 4 4 3 4 4 3 4 3 3 5 6 2 3 2 1 2 5 5 4 5 4 6 7 6 7 5 5 5 5 7 9 10 10 9 8 9 10 12 11 9 9 10 11 12 13 14 14 14 14 15 15 15 15 15 14 13 14 15 13 11 11 11
5 6 5 6 5 3 3 4 3 3 3 4 4 4 3 3 4 4 4 5 5 3 5 3 2 3 3 4 3 4 5 5 6 4 5 4 5 6 5 3 4 5 8 8 8 8 10 11 11 11 9 8 10 12 13 12 13 14 14 14 14 15 14 14 13 13 14 14 13 12 13 13 11 10
6 6 7 6 4 4 4 4 4 4 4 4 3 4 3 4 4 3 4 5 4 4 6 5 2 2 2 3 3 3 4 5 4 4 4 4 6 6 4 3 2 4 7 7 8 9 10 11 9 9 9 9 11 13 13 13 13 13 13 13 14 14 13 13 14 14 14 14 14 13 13 12 11 11
5 6 7 6 5 4 6 6 5 4 5 3 4 4 4 4 3 3 4 3 4 4 6 4 5 1 3 4 3 3 1 4 5 6 6 4 2 3 5 4 3 2 3 3 4 6 7 8 8 10 10 11 12 12 12 12 13 11 11 12 12 12 12 12 13 14 14 14 15 14 14 13 13 12
5 6 6 6 6 6 7 7 6 5 4 5 5 5 5 4 3 4 5 4 4 4 4 3 4 5 4 3 5 3 0 3 4 4 5 3 3 2 2 5 3 2 3 2 4 6 5 5 6 9 11 12 12 11 11 12 11 9 10 11 11 12 12 12 13 14 14 14 14 14 14 14 13 12
6 7 7 7 6 7 7 7 7 6 6 4 5 5 3 3 4 5 5 4 5 4 4 5 5 3 4 4 3 3 3 3 4 1 2 3 3 4 3 3 4 3 4 5 5 5 6 6 7 10 10 11 11 10 9 11 10 10 11 12 12 12 13 14 14 14 14 14 14 14 14 14 14 14
6 6 7 7 7 7 11 11 10 8 7 5 6 5 4 4 5 5 5 5 5 5 4 6 3 4 5 5 4 6 4 4 5 3 0 3 2 2 3 5 2 1 2 4 4 5 5 5 6 5 6 6 8 9 9 7 9 11 13 12 12 12 13 13 13 14 14 14 14 14 14 14 14 14
7 8 7 8 13 13 13 13 12 12 12 10 8 7 5 5 5 5 5 5 5 5 6 7 6 6 7 6 4 4 4 3 2 4 4 4 4 3 4 2 1 0 2 3 5 4 4 4 5 6 5 4 6 5 5 5 6 10 11 11 12 13 13 13 13 14 14 14 14 14 14 14 14 13
9 8 8 7 10 11 11 11 14 13 13 12 13 13 12 9 7 6 6 6 5 5 6 6 4 6 7 6 3 5 5 2 3 4 3 4 2 2 3 6 4 1 1 2 1 3 4 3 5 3 5 4 5 5 4 5 8 9 10 12 13 13 13 13 13 14 14 14 14 14 14 14 14 14
8 9 8 7 7 7 8 8 7 9 12 13 14 14 14 14 12 10 7 7 6 4 6 7 7 5 7 6 3 5 2 5 3 4 3 3 3 4 3 2 3 3 1 3 1 1 3 2 4 4 3 4 3 4 6 7 7 10 11 12 12 12 12 12 13 14 14 14 14 14 14 14 14 14
9 8 8 8 7 7 12 10 8 7 8 11 14 14 13 13 12 12 13 12 10 6 6 7 8 7 5 5 6 5 4 3 3 2 3 3 3 4 4 5 3 4 1 2 1 1 2 2 2 4 3 2 2 5 6 9 10 10 10 10 11 12 12 13 13 13 13 14 14 14 15 15 14 14
9 9 9 9 9 8 7 7 7 6 7 7 6 6 6 7 9 11 13 15 16 11 9 8 9 9 5 9 7 5 4 3 4 3 5 3 4 5 6 4 4 2 1 2 3 1 2 2 2 3 2 2 3 3 6 9 9 10 10 10 11 12 13 13 13 13 14 14 14 15 16 16 15 13
10 10 10 10 10 9 8 8 8 8 7 6 6 6 6 6 7 6 6 7 7 8 8 10 11 11 7 9 9 5 4 5 5 5 5 5 5 4 1 1 2 2 1 3 2 2 2 1 2 0 0 1 3 2 4 8 9 10 11 11 11 12 13 12 12 13 14 14 15 16 16 17 15 14
10 10 10 10 10 10 10 11 14 12 7 5 6 7 7 7 6 7 9 11 9 9 9 9 10 10 10 10 8 5 4 5 4 3 2 0 1 2 4 5 1 2 1 2 3 2 1 0 0 0 1 0 3 2 3 6 8 10 11 11 11 12 12 12 12 13 13 14 16 16 17 17 16 14
10 10 10 10 10 10 10 13 13 13 11 7 8 8 8 8 6 9 8 9 14 15 14 15 16 15 14 13 11 8 6 6 5 3 2 5 4 4 5 5 1 2 1 2 3 3 1 1 1 1 0 0 1 1 2 3 5 9 10 10 11 12 12 11 11 12 13 14 15 16 16 17 14 13
9 10 15 13 11 11 11 14 14 14 10 8 9 8 9 9 9 11 9 4 6 11 12 13 13 13 13 11 10 10 9 9 6 6 7 5 5 6 6 6 4 2 1 3 4 3 3 0 0 1 1 1 1 0 0 1 4 6 7 10 11 11 12 11 11 11 13 13 13 14 15 15 12 8
9 9 11 17 15 13 14 17 15 14 11 9 9 9 8 9 11 13 8 5 6 5 4 6 6 7 10 9 8 8 11 11 9 8 8 5 6 6 6 5 1 1 3 4 4 4 2 1 1 2 1 1 3 1 2 2 3 4 4 6 7 9 11 12 12 12 12 13 12 12 14 16 12 7
9 9 9 11 16 18 18 18 16 14 14 11 9 8 8 10 13 11 5 6 7 7 7 8 7 8 6 4 4 4 4 6 8 9 8 7 7 6 6 5 5 5 4 3 5 4 2 2 2 1 2 2 1 1 2 3 2 2 2 5 5 8 8 9 10 13 14 12 12 12 12 13 12 8
10 10 10 9 13 17 18 18 16 14 14 14 11 9 10 12 14 8 5 7 10 7 7 7 7 6 5 4 4 4 4 5 6 7 7 7 7 7 6 5 5 6 5 5 8 4 3 4 3 1 0 1 1 1 2 2 5 2 1 2 4 6 5 6 6 7 9 12 12 12 11 11 11 8
10 10 10 9 13 17 17 17 16 17 15 16 10 12 16 17 15 10 7 6 5 6 6 6 6 6 5 5 5 6 5 6 6 6 7 7 7 8 8 8 8 6 6 5 10 5 5 2 5 3 1 2 1 0 2 3 4 3 3 3 3 5 3 5 6 7 6 6 7 8 10 11 8 9
11 10 10 11 15 15 16 16 17 17 18 12 11 18 18 16 16 10 6 6 6 6 6 6 7 7 6 6 6 6 7 6 6 7 7 7 7 7 7 7 6 7 5 6 5 5 4 2 3 6 4 2 2 1 1 2 2 3 5 4 5 5 4 4 6 6 6 6 6 9 9 9 10 9
11 10 10 11 16 17 17 17 16 16 14 12 16 17 16 14 11 6 6 6 7 7 7 7 7 7 6 6 6 6 7 7 4 3 3 4 6 6 6 4 3 2 5 7 6 5 5 5 5 3 6 6 5 3 2 3 3 2 3 6 5 4 4 3 5 5 5 5 5 5 5 6 6 6
11 12 15 16 18 17 15 16 14 11 12 16 15 15 16 13 5 6 7 7 6 7 8 9 8 7 8 8 7 4 3 3 3 2 1 1 1 1 1 2 2 3 4 4 5 5 6 6 6 3 3 3 5 3 3 3 1 2 1 3 5 6 6 5 6 6 6 6 6 5 6 5 6 5
18 16 17 19 16 11 11 9 7 8 10 15 17 16 11 6 7 7 8 8 8 9 9 9 9 9 7 5 6 4 4 5 5 4 3 4 2 3 4 4 1 0 1 4 5 5 5 5 6 6 5 3 5 5 5 3 3 4 1 1 4 5 1 3 6 6 6 6 6 5 6 5 6 5
9 11 11 8 9 9 12 13 12 11 10 8 7 7 7 8 8 8 8 9 10 9 9 9 9 9 5 4 5 5 6 6 5 5 6 6 5 5 4 5 4 2 1 2 3 5 5 5 5 7 5 3 2 4 3 3 2 4 4 2 1 0 3 4 5 6 6 6 6 5 4 5 5 5
12 9 3 3 3 4 4 6 6 7 6 8 7 7 7 8 8 9 11 9 6 7 7 8 5 3 5 5 6 5 6 6 5 5 6 7 6 5 6 5 5 3 3 3 1 1 2 1 4 6 5 7 6 3 1 2 4 4 5 3 1 4 3 5 5 5 5 5 5 5 5 5 6 6
8 4 4 5 5 6 8 8 8 7 7 7 8 8 7 7 7 7 7 9 9 9 8 8 8 8 6 5 3 5 4 3 5 5 6 5 7 6 5 6 6 6 6 6 4 2 1 2 1 1 2 2 2 5 5 2 6 5 6 6 3 5 6 5 4 4 4 5 5 6 5 4 4 5
8 9 9 9 9 8 8 9 9 9 9 9 8 8 7 7 7 8 8 9 9 9 9 9 7 7 5 9 4 2 5 5 6 7 8 6 6 7 6 6 6 5 6 7 6 5 3 1 2 3 2 1 0 4 5 5 5 3 5 5 3 5 6 5 5 3 3 1 3 6 6 5 4 4
10 9 10 10 10 10 10 11 11 9 9 9 9 9 9 8 9 9 8 8 7 7 7 7 7 4 9 5 7 9 9 8 6 5 4 5 6 6 6 6 6 6 6 6 6 5 4 4 4 2 0 3 3 3 5 6 4 6 2 4 5 5 6 3 3 5 4 4 2 3 6 3 5 4
11 10 10 10 10 10 10 11 10 9 10 10 10 9 9 9 9 9 9 9 9 8 7 7 6 6 9 10 8 6 7 7 7 7 6 6 7 6 6 7 8 7 6 6 6 5 5 5 5 6 4 1 0 3 4 4 5 5 5 4 2 4 5 4 3 3 5 5 2 2 3 5 7 5
10 10 10 10 10 10 12 11 11 11 11 11 10 9 8 7 7 8 8 6 6 7 7 6 6 7 7 8 9 8 7 8 7 7 7 5 5 6 6 6 6 6 6 6 5 6 5 5 5 6 5 3 4 6 7 3 5 5 6 7 4 4 4 2 3 6 5 4 6 3 3 2 4 6
12 10 11 11 11 11 11 11 10 9 11 11 9 7 8 7 6 7 5 5 7 6 6 6 6 7 7 8 8 7 7 7 7 8 7 7 8 7 7 7 6 6 6 5 5 5 6 6 6 7 6 6 6 6 5 5 3 4 7 7 7 5 3 3 2 6 7 2 5 4 1 3 5 4
10 10 10 11 11 11 12 12 10 11 11 9 8 8 7 6 6 5 6 7 7 7 6 6 7 8 8 8 8 8 9 8 8 9 8 8 8 8 6 6 6 6 5 4 3 4 4 5 7 7 8 7 7 6 7 4 6 5 2 5 5 3 5 6 7 5 6 5 5 3 5 5 5 5
12 11 11 11 12 11 11 9 8 8 9 10 10 9 7 1 0 2 4 6 6 6 6 7 7 7 8 9 9 9 10 12 11 9 9 7 6 5 6 6 7 6 5 4 4 5 5 6 6 7 8 10 6 2 3 2 2 3 3 3 8 8 6 6 6 5 4 5 2 2 6 4 2 2
11 10 11 10 10 8 4 4 2 8 10 10 10 7 8 10 11 10 9 8 6 6 7 7 8 9 9 9 9 9 9 7 7 7 6 6 6 7 7 6 5 5 6 6 6 5 6 8 5 6 3 2 3 4 1 2 5 5 5 5 6 8 7 7 6 5 5 2 2 4 6 4 3 4
11 11 10 10 8 9 9 12 15 10 8 8 5 6 7 8 9 9 8 8 7 6 6 6 6 6 6 5 4 3 4 5 5 5 6 6 6 6 7 6 6 5 6 7 7 7 3 0 0 2 4 4 3 3 6 6 6 6 5 5 4 5 7 7 7 6 5 4 3 3 2 2 1 2
9 10 11 10 8 10 12 14 11 10 10 7 7 9 9 8 5 6 6 7 7 7 7 7 7 7 7 6 6 6 6 6 5 6 7 8 8 8 7 7 7 7 7 6 4 2 0 1 3 5 5 5 3 4 5 6 5 4 4 6 5 2 4 6 6 6 7 8 8 6 3 2 1 2
9 9 10 7 7 9 9 9 9 10 8 7 7 6 7 7 7 6 7 7 8 8 7 7 6 7 7 7 6 5 5 5 5 6 6 5 6 7 7 6 6 6 5 5 5 3 3 3 4 2 3 1 2 3 5 4 5 4 5 4 3 4 5 2 3 4 5 7 10 10 9 9 7 5
7 5 3 4 4 4 5 6 7 6 3 3 6 7 7 7 6 6 5 6 6 6 6 6 6 5 5 6 7 6 5 5 6 6 7 6 6 6 6 7 7 6 5 4 6 3 4 2 2 3 4 2 0 2 2 2 3 3 3 2 6 5 4 1 2 4 5 6 5 9 9 7 7 5
Wind_Direction
226 221 212 230 278 292 296 298 304 196 169 193 174 166 149 155 115 306 340 289 275 313 350 339 289 330 330 351 330 317 288 274 282 278 266 266 267 272 275 278 280 280 282 283 283 283 285 285 288 291 294 298 300 299 299 301 303 306 306 304 299 297 294 293 290 286 282 279 276 271 261 254 255 252
231 236 263 208 272 290 307 275 301 263 153 157 181 170 136 139 169 184 241 280 219 264 305 206 270 324 338 345 330 315 297 293 295 278 272 263 261 264 273 277 282 287 292 296 295 293 292 297 301 306 307 304 301 299 298 305 305 304 306 307 311 317 318 313 308 301 296 292 287 283 275 269 265 256
226 245 255 244 253 272 270 284 295 274 180 192 171 123 124 154 135 151 133 346 286 183 268 291 240 260 309 324 312 309 301 298 297 297 288 278 274 290 293 298 305 307 308 307 309 314 321 321 321 315 308 305 306 313 315 316 320 330 344 349 346 337 331 326 318 311 307 304 301 297 292 283 273 267
230 235 251 254 250 246 250 282 273 240 228 186 175 164 164 154 143 135 135 164 266 234 225 255 291 278 282 303 298 305 319 313 321 315 311 302 309 307 304 305 300 303 307 314 322 328 327 331 324 315 314 321 328 335 352 2 6 6 360 351 353 352 349 352 339 330 317 312 307 305 301 295 289 281
238 235 242 253 252 222 232 251 256 251 235 205 217 169 157 166 161 147 147 196 264 296 246 260 270 303 307 306 252 325 314 318 318 323 307 302 302 312 316 311 311 315 325 336 342 341 348 343 333 330 339 357 8 20 17 18 19 21 23 25 28 28 25 21 10 354 351 338 325 315 311 306 299 291
230 229 237 252 254 228 224 240 235 235 201 195 194 203 193 203 203 193 153 214 233 277 312 295 292 289 232 276 289 300 308 307 319 319 318 318 326 321 321 326 321 328 334 341 335 345 348 342 352 5 22 20 29 34 38 38 36 34 31 26 24 22 20 17 14 7 3 357 353 345 336 324 312 303
225 235 236 247 243 225 233 242 234 217 221 204 198 215 204 215 219 194 195 167 241 271 280 255 297 270 301 228 291 307 289 287 290 302 309 321 322 323 324 325 323 316 334 333 342 350 349 7 13 21 24 33 49 53 49 44 39 34 28 23 21 21 19 15 10 7 5 1 359 355 350 340 327 316
217 228 238 245 238 227 234 253 246 229 211 204 213 219 216 209 225 211 192 204 215 234 267 286 227 279 305 293 284 274 287 288 302 292 298 309 302 303 315 327 311 323 333 339 0 5 12 14 16 23 33 59 65 57 49 41 36 31 25 22 21 20 16 11 7 6 5 3 3 357 350 346 338 329
219 225 230 239 230 221 237 254 250 244 237 226 209 222 227 217 230 228 205 217 207 226 250 277 283 298 285 257 284 273 285 310 310 307 306 308 303 308 310 312 322 321 344 5 8 15 11 11 17 33 57 73 65 55 44 34 32 27 21 20 21 18 13 9 6 6 5 3 3 1 357 350 346 341
220 223 231 236 228 228 231 243 240 230 236 232 228 235 233 228 221 237 248 230 221 219 243 249 297 331 279 311 286 268 263 284 305 314 317 326 329 338 334 337 350 350 349 357 8 11 10 6 27 48 67 66 60 53 42 36 31 25 20 21 22 19 12 8 7 5 3 2 0 359 357 355 353 349
232 231 232 233 226 228 231 238 238 233 231 223 235 230 234 224 217 240 248 237 235 230 248 264 235 267 275 236 280 303 305 264 255 273 316 334 311 340 350 314 331 355 351 29 51 17 10 27 40 56 63 59 52 44 36 34 35 28 25 27 27 22 15 11 9 6 2 1 358 356 355 354 355 351
228 233 238 236 228 224 231 230 237 224 233 221 235 235 222 223 218 241 248 250 243 249 247 248 269 233 258 307 275 299 346 336 329 276 224 276 293 318 328 278 305 318 1 4 12 1 15 26 34 41 50 53 45 35 36 42 43 33 32 32 27 21 16 11 7 4 1 359 356 354 352 350 351 355
226 231 236 241 238 229 229 226 230 228 221 220 236 242 206 225 224 240 244 245 249 255 253 274 260 271 281 267 283 308 304 283 267 280 352 278 251 267 306 291 283 278 9 345 23 14 4 19 34 33 37 31 34 30 35 38 34 32 33 28 23 20 17 10 3 360 359 357 354 351 349 348 349 351
232 232 232 237 240 239 239 237 236 238 238 231 223 236 211 221 223 231 241 247 243 246 259 257 262 274 269 267 246 251 251 259 300 307 273 261 291 332 317 303 292 78 66 14 16 1 360 38 43 32 37 15 37 35 37 41 39 35 29 24 22 21 15 7 1 358 358 357 353 348 347 347 347 349
235 239 238 238 245 248 244 241 238 237 236 238 241 244 241 224 212 229 238 246 235 234 243 256 250 248 269 269 232 237 259 254 250 256 244 246 327 358 348 317 310 310 121 78 52 12 356 42 61 36 28 16 43 42 42 39 39 32 28 24 20 17 11 5 0 358 357 356 351 346 346 348 347 348
233 237 239 240 237 234 234 237 242 240 238 237 239 242 246 248 244 234 224 243 254 225 241 255 249 244 253 266 228 248 225 246 240 246 248 249 264 284 271 244 268 254 85 76 72 341 338 39 64 52 15 12 47 57 41 37 32 28 25 21 16 11 8 5 1 356 356 354 350 346 347 350 349 347
230 233 236 243 238 239 235 233 230 228 237 235 235 241 249 258 253 248 249 244 241 242 227 239 256 229 237 254 248 208 211 170 206 242 255 263 255 245 260 249 260 291 103 88 75 52 308 41 55 61 358 13 39 36 23 27 27 21 18 14 9 7 7 6 359 354 355 353 349 347 350 352 351 348
224 226 230 235 244 240 238 235 229 224 227 234 235 237 235 241 253 249 240 243 246 241 239 239 249 250 186 240 242 221 165 162 224 220 244 240 260 256 246 233 223 263 76 159 142 37 306 7 62 50 341 348 48 45 24 21 17 15 11 5 3 5 7 4 356 353 354 354 352 352 352 353 351 348
220 224 224 228 237 242 238 231 226 228 230 227 232 238 242 236 240 240 241 233 230 227 223 233 240 252 231 233 244 230 188 208 217 202 221 222 221 244 297 293 267 279 90 126 103 187 255 340 51 344 294 348 65 1 17 12 6 5 5 1 356 1 6 3 355 354 355 355 355 355 354 352 350 348
221 222 222 224 231 238 239 238 230 230 230 229 238 243 249 254 249 245 235 233 229 223 219 221 231 241 239 234 236 234 205 212 217 221 259 18 215 237 266 256 358 252 252 136 126 130 252 259 129 253 270 46 66 350 10 347 353 354 354 353 349 356 3 1 355 355 358 357 356 357 356 353 349 349
221 221 220 221 228 233 237 237 225 226 225 234 238 242 250 252 258 260 253 220 226 231 229 228 231 238 244 245 250 257 225 206 182 165 190 247 195 208 251 271 313 248 242 246 152 131 165 226 166 272 288 351 106 26 337 328 337 342 342 344 343 349 356 0 358 359 0 360 359 356 356 354 349 352
222 223 220 218 223 230 236 234 223 218 204 223 232 237 244 253 255 260 252 225 234 228 234 241 243 245 249 249 247 240 228 214 191 167 218 215 157 211 217 242 224 267 299 237 154 102 192 266 166 206 304 354 227 239 274 332 335 342 341 341 334 340 348 355 1 5 2 1 1 356 352 356 352 3
224 226 227 225 224 226 235 235 226 215 196 217 225 229 235 245 251 252 250 231 243 236 236 247 235 247 239 235 226 232 223 204 207 206 222 189 181 210 211 208 159 297 261 239 164 135 228 137 243 139 72 289 274 278 278 304 323 335 344 338 331 330 345 348 357 5 4 359 357 357 352 356 1 8
227 227 228 227 228 229 234 236 229 219 199 212 226 223 229 239 249 253 241 229 224 235 223 238 227 233 234 216 210 215 202 195 203 212 218 209 198 207 207 197 191 199 221 231 169 148 203 153 194 173 171 159 284 285 332 312 295 306 332 344 332 324 331 347 358 358 356 356 354 354 355 358 8 5
226 227 227 229 224 224 231 235 233 226 213 213 224 221 225 228 241 249 233 240 225 229 233 236 236 237 237 227 218 219 215 207 199 208 213 208 201 197 204 205 206 229 228 220 170 126 174 175 185 146 39 93 196 326 283 281 287 264 331 346 316 315 332 347 358 354 351 348 348 346 348 355 8 17
225 227 224 228 227 222 225 229 229 227 223 217 217 232 230 236 243 247 238 243 244 239 236 237 238 235 226 226 224 223 220 214 204 202 201 202 205 209 206 200 198 207 220 206 163 151 120 149 187 152 152 109 272 221 310 303 273 276 334 313 308 301 327 350 353 348 346 339 339 341 334 345 7 10
223 221 222 228 229 223 221 223 224 223 222 217 221 231 237 237 242 247 254 243 239 239 233 226 232 227 220 218 220 216 221 223 206 205 204 199 202 212 217 215 201 203 194 155 169 160 135 164 182 156 183 166 146 256 265 256 297 325 345 326 328 318 330 1 354 338 333 337 334 323 327 335 346 357
220 218 218 221 223 221 218 219 219 219 210 211 221 228 237 242 244 239 244 242 236 235 233 229 230 228 218 217 218 218 218 221 203 186 176 188 199 206 209 204 195 185 158 155 166 178 153 148 184 194 151 157 152 172 230 277 270 284 282 308 306 305 324 358 345 329 324 331 327 326 336 349 346 352
220 216 213 216 220 220 216 217 220 222 218 219 224 224 226 227 222 223 226 232 227 229 231 232 231 228 218 212 213 194 161 133 125 143 173 186 186 123 122 149 150 164 157 158 165 176 160 158 171 150 125 150 159 211 159 221 221 276 274 345 333 326 328 336 349 332 326 330 329 334 354 341 345 356
219 213 213 218 221 214 211 209 209 215 217 216 220 226 223 210 214 215 218 222 220 228 229 229 232 231 219 199 194 152 143 145 179 174 175 155 147 136 138 119 113 12 197 173 176 170 158 159 156 157 156 172 176 182 210 214 271 266 260 199 259 304 315 348 338 329 333 328 321 330 334 349 343 356
239 232 226 217 207 208 202 204 211 215 221 215 214 215 210 210 212 214 211 215 217 223 226 227 230 232 201 150 145 168 165 185 196 186 176 170 169 152 152 144 152 153 234 212 199 165 166 166 155 149 155 189 202 217 211 167 229 287 286 236 126 261 285 337 321 322 320 317 313 318 326 338 338 350
229 228 194 158 163 192 200 219 229 226 216 211 203 205 201 208 213 218 222 227 230 232 227 231 225 192 156 178 188 173 184 193 193 174 170 169 167 169 145 142 176 171 167 166 144 91 100 137 173 173 168 163 192 218 116 179 222 249 272 290 270 272 282 280 306 307 322 320 330 337 324 332 348 346
222 199 183 205 198 201 209 214 218 215 210 216 213 209 203 208 208 210 200 211 217 220 218 223 217 216 192 181 99 65 37 308 250 185 168 172 161 166 170 171 171 172 173 189 196 167 68 56 30 174 200 213 193 153 155 219 261 225 238 267 304 300 303 296 290 303 332 350 345 326 319 324 341 347
202 203 213 212 211 210 211 218 219 215 211 214 209 213 208 204 206 207 211 213 216 213 214 219 218 213 93 64 71 199 215 230 230 200 178 167 161 156 171 174 189 188 179 182 185 188 144 77 55 47 44 30 277 190 176 183 240 245 227 246 253 271 276 295 308 320 4 339 309 326 333 329 329 337
202 204 209 214 213 215 217 222 221 216 212 214 209 207 202 204 204 202 205 211 217 221 216 213 211 160 119 165 195 211 208 199 188 191 189 149 152 166 172 178 177 180 184 184 195 186 170 169 141 110 40 5 357 314 228 198 206 246 261 267 227 233 268 279 307 318 344 337 30 307 300 293 335 333
203 206 210 212 212 212 220 225 222 217 217 216 210 206 200 205 200 197 204 206 201 207 207 211 197 160 159 189 206 204 212 188 176 167 166 168 173 182 184 188 176 178 181 189 193 185 177 174 165 158 188 246 27 323 313 258 216 190 193 248 235 214 248 266 293 301 314 305 276 276 325 318 312 327
205 208 210 213 211 210 220 221 219 218 218 219 215 213 212 206 199 205 217 189 197 205 205 195 185 172 175 181 192 198 185 176 174 172 170 172 175 173 174 183 182 177 177 199 186 178 172 172 176 176 177 190 221 241 255 307 301 250 180 224 241 208 218 228 320 307 273 220 286 251 245 281 297 315
211 204 208 210 211 214 219 222 218 217 223 223 214 207 209 209 198 197 170 168 203 204 195 190 182 174 175 174 181 187 175 177 165 165 174 173 178 184 181 177 184 182 196 179 172 180 175 170 177 195 179 194 214 241 273 303 334 268 203 193 222 227 156 166 238 247 272 262 218 263 185 254 259 293
212 208 205 209 210 213 216 218 210 216 220 217 213 210 205 208 204 173 171 196 200 200 183 172 173 174 167 165 182 173 168 166 175 181 176 181 179 175 175 181 186 189 171 176 162 156 159 183 197 191 191 194 201 213 203 216 257 268 309 240 219 197 203 182 220 241 247 277 289 288 255 249 271 297
209 207 208 206 212 208 217 214 211 215 216 216 214 210 196 163 161 206 211 212 205 196 184 180 166 164 175 175 178 177 176 176 173 175 180 177 176 174 180 181 186 176 177 177 178 194 190 213 202 198 198 208 219 198 168 183 244 289 274 241 213 209 207 163 208 206 254 236 216 323 290 344 339 336
208 208 215 211 213 200 164 88 210 227 219 220 216 185 162 181 200 205 200 195 195 182 186 181 181 182 182 181 177 169 169 173 169 161 152 160 173 184 192 180 184 169 176 197 197 196 214 218 226 223 183 101 91 88 51 318 275 278 288 265 214 217 206 194 198 181 216 162 155 222 261 272 288 322
200 206 209 209 188 123 144 195 215 211 223 219 207 204 219 216 215 197 180 177 178 182 173 169 166 162 159 159 157 150 154 166 168 165 169 173 179 184 188 178 184 174 179 198 198 209 221 317 323 116 138 114 108 144 224 231 254 272 270 286 296 224 202 197 203 210 210 187 171 238 279 310 15 309
171 187 197 199 144 151 189 213 210 205 218 194 198 208 217 223 199 169 153 159 165 164 170 170 167 155 151 156 164 170 166 175 177 179 178 180 177 176 177 189 188 184 191 192 182 164 164 14 70 101 125 141 173 168 220 240 240 262 291 303 288 292 250 213 192 195 200 211 213 213 184 188 157 257
174 182 202 177 154 181 203 215 213 211 208 205 201 184 193 184 179 168 150 157 165 172 173 165 154 156 167 160 153 151 172 179 174 162 153 171 176 172 170 171 167 168 172 153 129 92 39 60 54 81 117 147 153 170 239 258 271 253 254 269 301 319 301 290 232 230 233 224 221 218 216 208 224 247
175 159 106 79 119 161 215 228 212 202 175 123 122 164 179 165 151 135 137 146 155 155 154 149 148 154 148 155 154 168 176 148 152 151 152 160 162 154 154 153 153 145 139 133 131 99 53 52 32 69 88 94 139 196 244 218 249 277 279 280 289 284 273 298 290 277 268 273 230 209 203 198 214 228